User: anonymous   Login
Location: Sperry Observatory
(40.6664°N, 74.3236°W)
Time: 22:02:31
(UTC-04:00)
Language:

JAS-2 - Orbit

View from above orbital plane
View from above orbital plane
View from above satellite
View from above satellite

Ground track
Ground track

The orbit data is extracted from the following two-line orbital elements,

1 24278U 96046B   16211.39441030 -.00000025  00000-0  80026-5 0  9992
2 24278  98.5843 131.0869 0351406  93.3260 270.8137 13.53069548985220
Epoch (UTC): 29 July 2016 09:27:57
Eccentricity: 0.0351406
inclination: 98.5843°
perigee height: 799 km
apogee height: 1322 km
right ascension of ascending node: 131.0869°
argument of perigee: 93.3260°
revolutions per day: 13.53069548
mean anomaly at epoch: 270.8137°
orbit number at epoch: 98522

The dashed part of the orbit path shows where the satellite is in the earth's shadow,  

DLR